This demonstration page uses our WeatherBlox Daily Observations layout. Learn more.

Left ArrowRight Arrow

39.12711, -84.51439

Hourly Observations for October 30, 2021

Temp ( °F °C ) Dew Point ( °F °C ) Humidity (%) Winds ( mph kmh ) Pressure ( in mb ) Visibility ( mi km ) Precip ( " mm )
12:00 am 00:00 Cloudy with Light Rain 56 13.3 56 13.3 100 100 Calm 29.42 996 6 10 0.00 0.00
12:07 am 00:07 Cloudy with Light Rain 56 13.3 56 13.3 100 100 Calm 29.42 996 5 8 0.01 0.25
12:13 am 00:13 Cloudy with Rain 56 13.3 56 13.3 100 100 Calm 29.42 996 3 4 0.03 0.76
12:46 am 00:46 Cloudy with Rain 57 13.9 56 13.3 96 96 W 6 9 29.41 996 3 4 0.13 3.30
12:53 am 00:53 Cloudy with Rain 57 13.9 56 13.3 96 96 W 6 9 29.41 996 3 5 0.15 3.81
1:08 am 01:08 Cloudy with Light Rain 57 13.9 57 13.9 100 100 Calm 29.42 996 5 8 0.02 0.51
1:28 am 01:28 Cloudy with Rain 57 13.9 56 13.3 96 96 N 5 7 29.41 996 5 8 0.04 1.02
1:38 am 01:38 Cloudy with Rain 57 13.9 56 13.3 96 96 N 3 6 29.41 996 5 8 0.05 1.27
1:53 am 01:53 Cloudy with Light Rain 57 13.9 56 13.3 96 96 N 3 6 29.41 996 7 11 0.07 1.78
2:30 am 02:30 Cloudy with Light Rain 57 13.9 56 13.3 96 96 N 3 6 29.42 996 10 16 0.00 0.00
2:42 am 02:42 Cloudy with Light Rain 57 13.9 56 13.3 96 96 N 3 6 29.42 996 10 16 0.01 0.25
2:53 am 02:53 Cloudy 57 13.9 56 13.3 96 96 N 6 9 29.41 996 8 13 0.01 0.25
3:04 am 03:04 Cloudy with Light Rain 56 13.3 56 13.3 100 100 N 6 9 29.42 996 3 4 0.00 0.00
3:27 am 03:27 Cloudy with Light Rain 56 13.3 55 12.8 97 97 N 8 13 29.42 996 6 10 0.01 0.25
3:53 am 03:53 Cloudy 56 13.3 55 12.8 97 97 N 8 13 29.41 996 10 16 0.01 0.25
4:49 am 04:49 Cloudy with Light Rain 55 13 54 12 94 94 N 6 9 29.42 996 10 16 0.00 0.00
4:53 am 04:53 Cloudy with Light Rain 56 13.3 54 12.2 93 93 NNW 8 13 29.41 996 10 16 0.00 0.00
5:14 am 05:14 Cloudy with Light Rain 55 12.8 54 12.2 96 96 N 6 9 29.42 996 3 4 0.01 0.25
5:23 am 05:23 Cloudy with Light Rain 55 12.8 55 12.8 100 100 N 5 7 29.42 996 2 3 0.02 0.51
5:37 am 05:37 Cloudy with Rain 55 12.8 54 12.2 96 96 N 6 9 29.42 996 3 5 0.05 1.27
5:53 am 05:53 Cloudy with Light Rain 55 12.8 54 12.2 96 96 N 8 13 29.42 996 7 11 0.06 1.52
6:30 am 06:30 Cloudy with Light Rain 55 12.8 54 12.2 96 96 N 7 11 29.44 997 8 13 0.01 0.25
6:42 am 06:42 Cloudy 55 12.8 53 11.7 93 93 N 8 13 29.44 997 10 16 0.01 0.25
6:53 am 06:53 Cloudy 55 12.8 53 11.7 93 93 N 7 11 29.44 997 10 16 0.01 0.25
7:53 am 07:53 Cloudy 54 12.2 53 11.7 97 97 NNW 6 9 29.45 997 7 11 0.00 0.00
8:53 am 08:53 Cloudy 54 12.2 53 11.7 97 97 NNW 8 13 29.47 998 7 11 0.00 0.00
9:53 am 09:53 Cloudy 55 12.8 52 11.1 90 90 NNW 7 11 29.49 999 8 13 0.00 0.00
10:03 am 10:03 Cloudy 55 12.8 53 11.7 93 93 NNW 6 9 29.49 999 10 16 0.00 0.00
10:10 am 10:10 Cloudy 56 13.3 52 11.1 87 87 N 6 9 29.49 999 8 13 0.00 0.00
10:53 am 10:53 Cloudy with Mist and Fog 55 12.8 53 11.7 93 93 NW 7 11 29.50 999 6 10 0.00 0.00
11:53 am 11:53 Cloudy with Mist and Fog 55 12.8 53 11.7 93 93 VRB 3 6 29.50 999 3 5 0.00 0.00
12:53 pm 12:53 Cloudy with Mist and Fog 55 12.8 54 12.2 96 96 NNW 7 11 29.51 999 4 6 0.00 0.00
1:53 pm 13:53 Cloudy with Mist and Fog 56 13.3 54 12.2 93 93 NW 5 7 29.51 999 4 6 0.00 0.00
2:53 pm 14:53 Cloudy 57 13.9 54 12.2 90 90 VRB 6 9 29.52 1000 10 16 0.00 0.00
3:53 pm 15:53 Cloudy 58 14.4 53 11.7 84 84 NW 8 13 29.54 1000 8 13 0.00 0.00
4:53 pm 16:53 Cloudy 57 13.9 53 11.7 87 87 NW 15 24 29.56 1001 10 16 0.00 0.00
5:53 pm 17:53 Cloudy with Mist and Fog 55 12.8 52 11.1 90 90 NW 7 11 29.60 1002 3 5 0.00 0.00
6:53 pm 18:53 Cloudy 55 12.8 51 10.6 87 87 N 10 17 29.62 1003 10 16 0.00 0.00
7:24 pm 19:24 Cloudy 54 12.2 51 10.6 90 90 NNW 10 17 29.64 1004 10 16 0.00 0.00
7:32 pm 19:32 Cloudy 54 12.2 51 10.6 90 90 Calm 29.64 1004 10 16 0.00 0.00
7:53 pm 19:53 Cloudy 54 12.2 51 10.6 90 90 WNW 3 6 29.65 1004 10 16 0.00 0.00
8:53 pm 20:53 Cloudy 54 12.2 51 10.6 90 90 NW 9 15 29.67 1005 10 16 0.00 0.00
9:08 pm 21:08 Cloudy 54 12.2 51 10.6 90 90 NW 6 9 29.67 1005 10 16 0.00 0.00
9:31 pm 21:31 Cloudy 54 12.2 50 10 87 87 NW 8 13 29.68 1005 10 16 0.00 0.00
9:53 pm 21:53 Cloudy 54 12.2 50 10 87 87 WNW 7 11 29.69 1005 10 16 0.00 0.00
10:30 pm 22:30 Cloudy 54 12.2 51 10.6 90 90 NNW 6 9 29.70 1006 10 16 0.00 0.00
10:38 pm 22:38 Cloudy 54 12.2 51 10.6 90 90 NNW 6 9 29.71 1006 10 16 0.00 0.00
10:53 pm 22:53 Cloudy 54 12.2 51 10.6 90 90 NNW 6 9 29.71 1006 10 16 0.00 0.00
11:53 pm 23:53 Cloudy 54 12.2 51 10.6 90 90 W 3 6 29.72 1007 10 16 0.00 0.00

Powered by AerisWeather